Location: Unspecified
(0.0000°N, 0.0000°E)
Time: 14:34:54
(UTC+00:00)

EQUISAT - All Passes

Search period start: 15 August 2020 00:00
Search period end: 25 August 2020 00:00
Orbit: 334 x 341 km, 51.6° (Epoch: 14 August)

Date Brightness Start Highest point End Pass type
(mag) Time Alt. Az. Time Alt. Az. Time Alt. Az.
15 Aug - 01:55:49 10° WSW 01:58:16 26° NW 02:00:42 10° N night (unlit)
15 Aug - 13:18:38 10° NW 13:21:29 83° SW 13:24:20 10° SSE daylight
16 Aug - 00:42:13 10° S 00:44:46 31° SE 00:47:19 10° ENE night (unlit)
16 Aug - 12:06:34 10° NNE 12:07:56 13° NE 12:09:19 10° E daylight
16 Aug - 13:41:19 10° W 13:42:44 13° SW 13:44:09 10° SSW daylight
17 Aug - 01:03:24 10° WSW 01:05:58 31° NW 01:08:30 10° N night (unlit)
17 Aug - 12:26:17 10° NNW 12:29:07 82° NE 12:31:58 10° SE daylight
17 Aug - 23:49:54 10° S 23:52:21 26° SE 23:54:47 10° ENE night (unlit)
18 Aug - 11:14:36 10° NE 11:15:27 11° NE 11:16:20 10° ENE daylight
18 Aug - 12:48:31 10° W 12:50:15 15° SW 12:51:58 10° SSW daylight
19 Aug - 00:10:47 10° SW 00:13:26 37° NW 00:16:04 10° NNE night (unlit)
19 Aug - 11:33:42 10° NNW 11:36:32 66° NE 11:39:21 10° SE daylight
19 Aug - 22:57:23 10° S 22:59:41 22° SE 23:01:59 10° ENE night (unlit)
20 Aug - 11:55:32 10° W 11:57:32 17° SW 11:59:30 10° S daylight
20 Aug - 23:17:56 10° SW 23:20:39 45° NW 23:23:22 10° NNE night (unlit)
21 Aug - 10:40:54 10° NNW 10:43:41 53° NE 10:46:28 10° SE daylight
21 Aug - 22:04:41 10° S 22:06:48 19° SE 22:08:54 10° ENE night (unlit)
22 Aug - 11:02:22 10° WNW 11:04:33 20° SW 11:06:45 10° S daylight
22 Aug - 22:24:52 10° SW 22:27:38 56° NW 22:30:24 10° NNE night (unlit)
23 Aug - 09:47:54 10° NNW 09:50:37 42° NE 09:53:20 10° SE daylight
23 Aug - 21:11:48 10° SSE 21:13:39 16° SE 21:15:31 10° E night (unlit)
24 Aug - 10:08:59 10° WNW 10:11:21 24° SW 10:13:44 10° S daylight
24 Aug - 21:31:35 10° SW 21:34:23 72° WNW 21:37:11 10° NNE night (unlit)
